EN

Hourly Weather Buchak

Today, 16 April, Friday

Time Temperature Precipitation Wind Pressure Humidity
00:00 +9°C° 0.2 mm 1 mps 743 mmHg 81%
01:00 +9°C° 0.2 mm 1 mps 743 mmHg 84%
02:00 +8°C° 0.2 mm 1 mps 743 mmHg 87%
03:00 +8°C° 0.2 mm 1 mps 743 mmHg 89%
04:00 +8°C° 0.2 mm 1 mps 743 mmHg 91%
05:00 +8°C° 0.2 mm 1 mps 743 mmHg 93%
06:00 +8°C° 0.1 mm 1 mps 743 mmHg 91%
07:00 +8°C° 0.1 mm 2 mps 743 mmHg 89%
08:00 +8°C° 0.1 mm 2 mps 743 mmHg 87%
09:00 +8°C° 0.2 mm 2 mps 743 mmHg 86%
10:00 +8°C° 0.2 mm 3 mps 744 mmHg 84%
11:00 +9°C° 0.2 mm 3 mps 744 mmHg 83%
12:00 +8°C° 0.6 mm 3 mps 744 mmHg 84%
13:00 +7°C° 0.6 mm 4 mps 744 mmHg 86%
14:00 +6°C° 0.6 mm 4 mps 744 mmHg 87%
15:00 +7°C° 0.9 mm 3 mps 744 mmHg 88%
16:00 +7°C° 0.9 mm 3 mps 744 mmHg 89%
17:00 +7°C° 0.9 mm 3 mps 744 mmHg 90%
18:00 +5°C° 0.4 mm 3 mps 745 mmHg 91%
19:00 +5°C° 0.4 mm 3 mps 745 mmHg 91%
20:00 +5°C° 0.4 mm 3 mps 745 mmHg 91%
21:00 +5°C° 0.3 mm 3 mps 746 mmHg 91%
22:00 +4°C° 0.3 mm 3 mps 746 mmHg 90%
23:00 +4°C° 0.3 mm 4 mps 746 mmHg 90%

Tomorrow, 17 April, Saturday

Time Temperature Precipitation Wind Pressure Humidity
00:00 +4°C° 0.2 mm 4 mps 746 mmHg 90%
01:00 +4°C° 0.2 mm 4 mps 747 mmHg 91%
02:00 +3°C° 0.2 mm 4 mps 747 mmHg 92%
03:00 +3°C° 0.2 mm 4 mps 747 mmHg 92%
04:00 +3°C° 0.2 mm 3 mps 747 mmHg 93%
05:00 +3°C° 0.2 mm 3 mps 748 mmHg 93%
06:00 +3°C° 0.1 mm 3 mps 748 mmHg 92%
07:00 +3°C° 0.1 mm 3 mps 748 mmHg 90%
08:00 +3°C° 0.1 mm 3 mps 749 mmHg 89%
09:00 +3°C° 0 mm 3 mps 749 mmHg 89%
10:00 +4°C° 0 mm 3 mps 749 mmHg 89%
11:00 +4°C° 0 mm 3 mps 750 mmHg 88%
12:00 +4°C° 0 mm 3 mps 750 mmHg 87%
13:00 +5°C° 0 mm 3 mps 750 mmHg 86%
14:00 +5°C° 0 mm 3 mps 750 mmHg 85%
15:00 +5°C° 0 mm 3 mps 750 mmHg 82%
16:00 +7°C° 0 mm 3 mps 750 mmHg 79%
17:00 +7°C° 0 mm 3 mps 750 mmHg 76%
18:00 +7°C° 0 mm 2 mps 750 mmHg 78%
19:00 +6°C° 0 mm 2 mps 750 mmHg 80%
20:00 +7°C° 0 mm 1 mps 750 mmHg 82%
21:00 +7°C° 0 mm 1 mps 750 mmHg 84%
22:00 +7°C° 0 mm 1 mps 750 mmHg 86%
23:00 +5°C° 0 mm 2 mps 749 mmHg 87%

Day after tomorrow, 18 April, Sunday

Time Temperature Precipitation Wind Pressure Humidity
00:00 +5°C° 0 mm 2 mps 749 mmHg 89%
01:00 +4°C° 0 mm 2 mps 749 mmHg 90%
02:00 +4°C° 0 mm 2 mps 749 mmHg 92%
03:00 +3°C° 0 mm 2 mps 749 mmHg 92%
04:00 +3°C° 0 mm 2 mps 748 mmHg 92%
05:00 +2°C° 0 mm 2 mps 748 mmHg 92%
06:00 +4°C° 0 mm 2 mps 748 mmHg 86%
07:00 +4°C° 0 mm 3 mps 748 mmHg 80%
08:00 +7°C° 0 mm 3 mps 748 mmHg 74%
09:00 +7°C° 0 mm 4 mps 748 mmHg 69%
10:00 +10°C° 0 mm 4 mps 748 mmHg 63%
11:00 +10°C° 0 mm 5 mps 748 mmHg 58%
12:00 +12°C° 0 mm 5 mps 748 mmHg 56%
13:00 +12°C° 0 mm 5 mps 747 mmHg 55%
14:00 +13°C° 0 mm 4 mps 747 mmHg 53%
15:00 +12°C° 0 mm 4 mps 747 mmHg 57%
16:00 +12°C° 0 mm 3 mps 747 mmHg 61%
17:00 +12°C° 0 mm 2 mps 747 mmHg 65%
18:00 +10°C° 0 mm 2 mps 747 mmHg 68%
19:00 +11°C° 0 mm 1 mps 747 mmHg 71%
20:00 +10°C° 0 mm 1 mps 747 mmHg 73%
21:00 +10°C° 0 mm 1 mps 747 mmHg 74%
22:00 +10°C° 0 mm 1 mps 747 mmHg 75%
23:00 +9°C° 0 mm 1 mps 747 mmHg 76%

19 April, Monday

Time Temperature Precipitation Wind Pressure Humidity
00:00 +9°C° 0 mm 1 mps 747 mmHg 75%
01:00 +9°C° 0 mm 1 mps 747 mmHg 75%
02:00 +9°C° 0 mm 1 mps 747 mmHg 74%
03:00 +9°C° 0 mm 1 mps 746 mmHg 75%
04:00 +9°C° 0 mm 1 mps 746 mmHg 75%
05:00 +9°C° 0 mm 1 mps 746 mmHg 76%
06:00 +9°C° 0 mm 1 mps 746 mmHg 76%
07:00 +10°C° 0 mm 1 mps 746 mmHg 75%
08:00 +10°C° 0 mm 1 mps 746 mmHg 75%
09:00 +10°C° 0.1 mm 2 mps 746 mmHg 71%
10:00 +12°C° 0.1 mm 2 mps 745 mmHg 68%
11:00 +12°C° 0.1 mm 2 mps 745 mmHg 64%
12:00 +11°C° 0.2 mm 3 mps 745 mmHg 66%
13:00 +11°C° 0.2 mm 3 mps 744 mmHg 67%
14:00 +11°C° 0.2 mm 4 mps 744 mmHg 68%
15:00 +11°C° 0.1 mm 4 mps 744 mmHg 72%
16:00 +9°C° 0.1 mm 5 mps 743 mmHg 76%
17:00 +8°C° 0.1 mm 5 mps 743 mmHg 80%
18:00 +8°C° 0 mm 5 mps 742 mmHg 82%
19:00 +7°C° 0 mm 4 mps 742 mmHg 84%
20:00 +7°C° 0 mm 4 mps 741 mmHg 86%
21:00 +7°C° 0 mm 4 mps 740 mmHg 87%
22:00 +7°C° 0 mm 5 mps 739 mmHg 89%
23:00 +7°C° 0 mm 5 mps 738 mmHg 90%

20 April, Tuesday

Time Temperature Precipitation Wind Pressure Humidity
00:00 +7°C° 0.4 mm 6 mps 738 mmHg 92%
01:00 +7°C° 0.4 mm 6 mps 737 mmHg 93%
02:00 +5°C° 0.4 mm 6 mps 736 mmHg 94%
03:00 +5°C° 1.2 mm 7 mps 734 mmHg 95%
04:00 +5°C° 1.2 mm 7 mps 733 mmHg 95%
05:00 +5°C° 1.2 mm 8 mps 732 mmHg 96%
06:00 +5°C° 2.8 mm 8 mps 731 mmHg 96%
07:00 +5°C° 2.8 mm 8 mps 730 mmHg 95%
08:00 +5°C° 2.8 mm 9 mps 729 mmHg 95%
09:00 +5°C° 3.2 mm 9 mps 728 mmHg 94%
10:00 +5°C° 3.2 mm 10 mps 728 mmHg 94%
11:00 +5°C° 3.2 mm 10 mps 728 mmHg 93%
12:00 +5°C° 2 mm 10 mps 728 mmHg 92%
13:00 +5°C° 2 mm 10 mps 729 mmHg 91%
14:00 +5°C° 2 mm 10 mps 729 mmHg 90%
15:00 +5°C° 1 mm 10 mps 730 mmHg 90%
16:00 +5°C° 1 mm 10 mps 731 mmHg 90%
17:00 +5°C° 1 mm 9 mps 732 mmHg 90%
18:00 +5°C° 0.2 mm 9 mps 733 mmHg 87%
19:00 +5°C° 0.2 mm 9 mps 734 mmHg 85%
20:00 +5°C° 0.2 mm 9 mps 735 mmHg 82%
21:00 +5°C° 0 mm 8 mps 735 mmHg 82%
22:00 +5°C° 0 mm 8 mps 736 mmHg 82%
23:00 +5°C° 0 mm 7 mps 736 mmHg 82%

21 April, Wednesday

Time Temperature Precipitation Wind Pressure Humidity
00:00 +4°C° 0 mm 8 mps 737 mmHg 83%
01:00 +4°C° 0 mm 8 mps 738 mmHg 84%
02:00 +4°C° 0 mm 8 mps 738 mmHg 85%
03:00 +4°C° 0 mm 8 mps 738 mmHg 84%
04:00 +4°C° 0 mm 8 mps 739 mmHg 83%
05:00 +4°C° 0 mm 8 mps 739 mmHg 82%
06:00 +5°C° 0 mm 8 mps 740 mmHg 80%
07:00 +5°C° 0 mm 8 mps 740 mmHg 78%
08:00 +6°C° 0 mm 8 mps 741 mmHg 77%
09:00 +7°C° 0 mm 8 mps 741 mmHg 71%
10:00 +9°C° 0 mm 8 mps 742 mmHg 66%
11:00 +11°C° 0 mm 8 mps 742 mmHg 61%
12:00 +11°C° 0.2 mm 8 mps 742 mmHg 60%
13:00 +11°C° 0.2 mm 8 mps 743 mmHg 60%
14:00 +12°C° 0.2 mm 8 mps 743 mmHg 59%
15:00 +12°C° 0.2 mm 7 mps 743 mmHg 60%
16:00 +11°C° 0.2 mm 7 mps 744 mmHg 60%
17:00 +11°C° 0.2 mm 6 mps 744 mmHg 61%
18:00 +10°C° 0 mm 5 mps 744 mmHg 66%
19:00 +10°C° 0 mm 4 mps 745 mmHg 72%
20:00 +8°C° 0 mm 3 mps 745 mmHg 77%
21:00 +8°C° 0 mm 3 mps 746 mmHg 79%
22:00 +7°C° 0 mm 3 mps 746 mmHg 81%
23:00 +7°C° 0 mm 3 mps 746 mmHg 82%
Show more

We Need Your Consent

Meteoprog and our Service Providers may store and access personal data such as cookies, device identifiers or other similar technologies on your device and process such data to personalise content and ads, as well as provide social media features and to analyse the traffic.

  • Store and/or access information on your device

    Cookies, device identifiers or other information can be stored or accessed on your device for the purposes indicated above.

  • Personalised ads and content, ad and content measurement, audience insights, and products development

    Ads and content can be personalised based on a profile. More data can be added to better personalise ads and content. Ad and content performance can be measured. Insights about the audience who saw the ads and content can be derived. Such data can be used to develop or improve user’s experience, systems and software.

By clicking ‘I Agree’ you will allow the use of indicated cookies, device identifiers, web beacons or other similar technologies. Your settings can be changed in the browser on your device.

For certain purposes, legitimate interests may be relied on, rather than consent. You can read more about this in our Privacy and Cookie Policy.